Location: Columbia
(38.9520°N, 92.3340°W)
Time: 23:38:44
(UTC-05:00)

Cosmos 1633 - Visible Passes

Search period start: 20 August 2017 00:00
Search period end: 30 August 2017 00:00
Orbit: 471 x 488 km, 82.5° (Epoch: 20 August)

Date Brightness Start Highest point End Pass type
(mag) Time Alt. Az. Time Alt. Az. Time Alt. Az.
20 Aug 2.9 20:35:50 10° SSW 20:39:25 72° W 20:43:04 10° N visible
22 Aug 6.0 21:20:36 10° W 21:22:13 12° WNW 21:23:51 10° NW visible
23 Aug 5.5 20:53:05 10° SW 20:55:52 21° WNW 20:58:40 10° NNW visible
24 Aug 4.5 20:26:14 10° SW 20:29:34 35° WNW 20:32:57 10° N visible
26 Aug 6.4 05:53:03 10° NE 05:54:41 13° ENE 05:56:21 10° E visible
27 Aug 6.4 20:44:52 10° W 20:46:07 11° WNW 20:47:23 10° NW visible
28 Aug 5.9 20:17:06 10° WSW 20:19:45 19° WNW 20:22:25 10° NNW visible
